Location: Gourdan-Polignan
(43.0709°N, 0.5748°E)
Time: 07:58:02
(UTC+00:00)

Cosmos 968 Rocket - Pass Details

Date: 15 May 2026
Orbit: 735 x 766 km, 74.0° (Epoch: 6 June)

Event Time Altitude Azimuth Distance (km) Brightness Sun altitude
Rises 19:40:26 0° 334° (NNW) 3,241 7.9 -5.0°
Reaches altitude 10° 19:42:53 10° 329° (NNW) 2,311 7.2 -5.3°
Maximum altitude 19:47:54 48° 256° (WSW) 991 4.5 -6.1°
Drops below altitude 10° 19:52:53 10° 183° (S) 2,289 5.7 -6.9°
Sets 19:55:18 0° 178° (S) 3,207 6.4 -7.2°
